Weather History for LKNA - April, 2013

Change the Weather History Date:

Sunday, April 28, 2013

  Actual Average Record
Temperature  
Mean Temperature 54 °F -  
Max Temperature 59 °F - - ()
Min Temperature 48 °F - - ()
Degree Days  
Heating Degree Days 12    
Growing Degree Days 4 (Base 50)    
Moisture  
Dew Point 48 °F    
Average Humidity 85    
Maximum Humidity 100    
Minimum Humidity 67    
Precipitation  
Precipitation 0.00 in - - ()
Sea Level Pressure  
Sea Level Pressure 29.83 in    
Wind  
Wind Speed 6 mph ()    
Max Wind Speed 14 mph    
Max Gust Speed -    
Visibility 5.7 miles    
Events      
T = Trace of Precipitation, MM = Missing Value Source: Averaged Metar Reports

Daily Weather History Graph

Daily Weather History Graph

Search for Another Location

Airport or City:

Trip Planner

Search our weather history database for the weather conditions in past years. The results will help you decide how hot, cold, wet, or windy it might be!

Date:

Astronomy

Apr. 28, 2013 Rise Set
Actual Time 5:39 AM CEST 8:07 PM CEST
Civil Twilight 5:04 AM CEST 8:42 PM CEST
Nautical Twilight 4:19 AM CEST 9:27 PM CEST
Astronomical Twilight 3:28 AM CEST 10:19 PM CEST
Moon 11:30 PM CEST (4/28) 7:28 AM CEST (4/28)
Length of Visible Light 15h 38m
Length of Day
14h 27m
Waning Gibbous, 91% of the Moon is Illuminated
Apr 28
Waning Gibbous
May 2
Last Quarter
May 10
New
May 18
First Quarter
May 25
Full

Hourly Weather History & Observations

Time (CEST) Temp. Dew Point Humidity Pressure Visibility Wind Dir Wind Speed Gust Speed Precip Events Conditions
12:00 AM 59.0 °F 48.2 °F 67% 29.62 in - SE 4.6 mph - N/A   Clear
1:00 AM 57.2 °F 48.2 °F 72% 29.62 in - SE 3.5 mph - N/A   Clear
2:00 AM 57.2 °F 48.2 °F 72% 29.62 in - Variable 2.3 mph - N/A   Clear
3:00 AM 51.8 °F 50.0 °F 94% 29.65 in - NW 10.4 mph - N/A   Clear
4:00 AM 51.8 °F 50.0 °F 94% 29.65 in - NNW 5.8 mph - N/A   Clear
5:00 AM 50.0 °F 48.2 °F 94% 29.65 in - WNW 11.5 mph - N/A   Clear
6:00 AM 50.0 °F 48.2 °F 94% 29.68 in 5.0 mi NNW 6.9 mph - N/A   Unknown
7:00 AM 50.0 °F 48.2 °F 94% 29.74 in 5.0 mi NW 10.4 mph - N/A   Mostly Cloudy
7:21 AM 50.0 °F 50.0 °F 100% 29.74 in 3.7 mi NW 9.2 mph - N/A   Overcast
8:00 AM 50.0 °F 48.2 °F 94% 29.77 in 3.7 mi NW 11.5 mph - N/A   Mostly Cloudy
9:00 AM 48.2 °F 46.4 °F 93% 29.80 in 6.2 mi NW 12.7 mph - N/A   Mostly Cloudy
10:00 AM 50.0 °F 46.4 °F 87% 29.83 in 6.2 mi NNW 9.2 mph - N/A   Mostly Cloudy
11:00 AM 53.6 °F 48.2 °F 82% 29.86 in 6.2 mi NW 9.2 mph - N/A   Mostly Cloudy
12:00 PM 53.6 °F 46.4 °F 77% 29.89 in 6.2 mi NW 13.8 mph - N/A   Mostly Cloudy
1:00 PM 53.6 °F 46.4 °F 77% 29.92 in 6.2 mi NNW 10.4 mph - N/A   Mostly Cloudy
2:00 PM 55.4 °F 46.4 °F 72% 29.92 in 6.2 mi NW 10.4 mph - N/A   Mostly Cloudy
3:00 PM 55.4 °F 48.2 °F 77% 29.95 in 6.2 mi NW 8.1 mph - N/A   Mostly Cloudy
4:00 PM 53.6 °F 48.2 °F 82% 29.98 in 6.2 mi NNW 10.4 mph - N/A   Mostly Cloudy
6:00 PM 51.8 °F 46.4 °F 82% 29.98 in 6.2 mi North 8.1 mph - N/A   Mostly Cloudy
7:00 PM 53.6 °F 48.2 °F 82% 29.98 in 6.2 mi North 5.8 mph - N/A   Mostly Cloudy
8:00 PM 51.8 °F 48.2 °F 88% 30.01 in 6.2 mi NE 3.5 mph - N/A   Mostly Cloudy
9:00 PM 50.0 °F 46.4 °F 87% 30.01 in - NE 3.5 mph - N/A   Clear
10:00 PM 48.2 °F 46.4 °F 93% 30.01 in - North 4.6 mph - N/A   Clear
11:00 PM 48.2 °F 46.4 °F 93% 30.01 in - NNE 2.3 mph - N/A   Clear